Home   Weather   Dallas   Past weeks

Flag for USA Past Weather in Dallas, Texas, USA — Yesterday and Last 2 Weeks

Now
77 °F

Mostly cloudy.


Feels Like: 79 °F
Forecast: 61 / 81 °F
Wind: 21 mph from South

Location: Dallas Love Field

Current Time: Apr 29, 2017 at 6:39:10 am

Latest Report: Apr 29, 2017 at 5:53 am


Visibility: 6 mi

Pressure: 29.53 "Hg

Humidity: 82%

Dew Point: 71 °F

Location of DallasLocation

Past Weather in Dallas — Graph

°F

Dallas Temperature Yesterday

Maximum temperature yesterday: 86 °F (at 1:53 pm)
Minimum temperature yesterday: 67 °F (at 2:53 am)
Average temperature yesterday: 78 °F

High & Low Weather Summary for the Past Weeks

 TemperatureHumidityPressure
High86 °F (Apr 25, 4:53 pm)94% (Apr 17, 2:08 pm)30.16 "Hg (Apr 17, 2:08 pm)
Low49 °F (Apr 23, 6:53 am)26% (Apr 23, 5:53 pm)29.39 "Hg (Apr 26, 1:53 am)
Average71 °F68%29.86 "Hg
* Reported Apr 14 5:53 am — Apr 29 5:35 am, Dallas, Weather by CustomWeather, © 2017

Note: Actual official high and low records may vary slightly from our data, if they occured in-between our weather recording intervals... More about our weather records

Advertising

Dallas Weather History for the Previous 24 Hours

Scroll right to see more
 ConditionsComfort  
Time TempWeatherWind HumidityBarometerVisibility
5:35 am
Sat, Apr 29
77 °FMostly cloudy.20 mph82%29.56 "Hg6 mi
4:53 am77 °FMostly cloudy.22 mph79%29.54 "Hg6 mi
4:08 am78 °FOvercast.18 mph76%29.58 "Hg6 mi
3:53 am78 °FMostly cloudy.8 mph76%29.56 "Hg6 mi
2:53 am78 °FMostly cloudy.16 mph76%29.57 "Hg6 mi
1:53 am79 °FMostly cloudy.20 mph77%29.60 "Hg7 mi
1:14 am79 °FPassing clouds.20 mph77%29.62 "Hg7 mi
12:53 am79 °FPassing clouds.18 mph77%29.59 "Hg7 mi
12:07 am80 °FPartly cloudy.22 mph76%29.61 "Hg7 mi
11:53 pm
Fri, Apr 28
80 °FMostly cloudy.21 mph76%29.59 "Hg7 mi
10:53 pm81 °FPassing clouds.20 mph74%29.59 "Hg7 mi
9:53 pm84 °FMostly cloudy.16 mph63%29.57 "Hg9 mi
8:53 pm84 °FOvercast.12 mph63%29.56 "Hg8 mi
7:53 pm84 °FCloudy.8 mph61%29.54 "Hg10 mi
6:53 pm86 °FMore clouds than sun.10 mph57%29.54 "Hg10 mi
5:53 pm86 °FMostly cloudy.12 mph55%29.54 "Hg10 mi
4:53 pm86 °FBroken clouds.17 mph55%29.54 "Hg10 mi
3:53 pm86 °FPartly sunny.15 mph55%29.56 "Hg8 mi
2:53 pm85 °FMostly cloudy.16 mph57%29.58 "Hg10 mi
1:53 pm86 °FMostly cloudy.9 mph53%29.59 "Hg10 mi
12:53 pm83 °FMore clouds than sun.10 mph57%29.59 "Hg10 mi
11:53 am79 °FCloudy.10 mph62%29.62 "Hg10 mi
10:53 am78 °FBroken clouds.10 mph64%29.62 "Hg10 mi
10:40 am77 °FBroken clouds.9 mph66%29.63 "Hg10 mi
9:53 am75 °FMostly cloudy.7 mph71%29.62 "Hg10 mi
8:53 am73 °FOvercast.7 mph74%29.60 "Hg10 mi
7:53 am71 °FOvercast.17 mph78%29.56 "Hg10 mi
6:53 am70 °FOvercast.18 mph79%29.54 "Hg8 mi
Weather by CustomWeather, © 2017

See weather overviewHow to use our weather pages